Station CHTS1 - 8665530 - Charleston, Cooper River Entrance, SC Image indicating link to RSS feed of recent meteorological observations for station CHTS1


Conditions at CHTS1 as of
(2:18 am EDT)
0618 GMT on 05/21/2024:
     

Click on the graph icon in the table below to see a time series plot of the last five days of that observation.

5-day plot - Wind Direction Wind Direction (WDIR):NNE ( 30 deg true )
5-day plot - Wind Speed Wind Speed (WSPD): 6.0 kts
5-day plot - Wind Gust Wind Gust (GST): 8.0 kts
5-day plot - Atmospheric Pressure Atmospheric Pressure (PRES):29.98 in
5-day plot - Air Temperature Air Temperature (ATMP): 68.9 °F
5-day plot - Water Temperature Water Temperature (WTMP): 75.6 °F
5-day plot - Wind Speed at 10 Meters Wind Speed at 10 meters (WSPD10M): 5.8 kts
5-day plot - Wind Speed at 20 Meters Wind Speed at 20 meters (WSPD20M): 7.8 kts
5-day plot -  Wind Speed, Wind Gust and Atmospheric Pressure Combined plot of Wind Speed, Gust, and Air Pressure
NOS Water Level Observation Network Water Level
Previous observations
TIME
(EDT)
5-day plot - Wind Direction
WDIR
 
5-day plot - Wind Speed
WSPD
kts
5-day plot - Wind Gust
GST
kts
5-day plot - Wave Height
WVHT
ft
5-day plot - Dominant Wave Period
DPD
sec
5-day plot - Average Wave Period
APD
sec
5-day plot - Mean Wave Direction
MWD
 
5-day plot - Atmospheric Pressure
PRES
in
5-day plot - Pressure Tendency
PTDY
in
5-day plot - Air Temperature
ATMP
°F
5-day plot - Water Temperature
WTMP
°F
5-day plot - Dew Point
DEWP
°F
5-day plot - Salinity
SAL
psu
5-day plot - Visibility
VIS
nmi
5-day plot - Tide (above MLLW)
TIDE
ft
2024-05-21 02:12 amNNE 7.0 8.0----29.98- 69.1 75.6----
2024-05-21 02:06 amNNE 7.0 8.0----29.99- 68.9 75.6----
2024-05-21 02:00 amNNE 7.0 7.0----29.99-0.02 68.7 75.6----
2024-05-21 01:54 amNNE 6.0 7.0----29.99- 68.7 75.4----
2024-05-21 01:48 amNNE 6.0 7.0----29.99- 68.7 75.4----
2024-05-21 01:42 amNNE 5.1 7.0----30.00- 68.7 75.4----
2024-05-21 01:36 amNNE 5.1 7.0----30.00- 68.9 75.4----
2024-05-21 01:30 amNNE 6.0 7.0----30.00- 68.9 75.4----
2024-05-21 01:24 amNNE 5.1 6.0----30.00- 69.1 75.4----
2024-05-21 01:18 amNNE 6.0 7.0----30.00- 69.3 75.4----
2024-05-21 01:12 amNNE 5.1 6.0----30.00- 69.1 75.4----
2024-05-21 01:06 amNNE 5.1 7.0----30.00- 69.1 75.4----
2024-05-21 01:00 am NE 5.1 7.0----30.01+0.00 68.9 75.6----
2024-05-21 12:54 am NE 5.1 6.0----30.01- 69.1 75.4----
2024-05-21 12:48 amNNE 4.1 6.0----30.01- 69.1 75.4----
2024-05-21 12:42 amNNE 5.1 5.1----30.01- 69.3 75.6----
2024-05-21 12:36 am NE 5.1 7.0----30.01- 69.4 75.6----
2024-05-21 12:30 am NE 4.1 7.0----30.01- 69.3 75.6----
2024-05-21 12:24 am NE 5.1 8.0----30.01- 69.3 75.6----
2024-05-21 12:18 am NE 6.0 7.0----30.01- 69.4 75.6----
2024-05-21 12:12 am NE 6.0 8.0----30.02- 69.6 75.6----
2024-05-21 12:06 am NE 7.0 8.0----30.01- 69.6 75.4----
2024-05-21 12:00 am NE 8.0 9.9----30.01- 69.8 75.4----
2024-05-20 11:54 pmENE 8.9 11.1----30.01- 70.0 75.4----
2024-05-20 11:48 pmENE 9.9 12.0----30.01- 70.3 75.4----
2024-05-20 11:42 pmENE 9.9 12.0----30.01- 70.2 75.4----
2024-05-20 11:36 pmENE 9.9 11.1----30.01- 70.3 75.4----
2024-05-20 11:30 pmENE 8.0 8.9----30.01- 70.2 75.2----
2024-05-20 11:24 pmENE 8.0 9.9----30.01- 69.8 75.2----
2024-05-20 11:18 pmENE 8.0 8.9----30.01- 69.8 75.2----
2024-05-20 11:12 pm NE 7.0 8.9----30.01- 69.8 75.4----
2024-05-20 11:06 pm NE 7.0 8.9----30.01- 69.8 75.4----
2024-05-20 11:00 pm NE 7.0 8.0----30.01+0.03 69.8 75.4----
2024-05-20 10:54 pm NE 7.0 8.9----30.01- 70.0 75.4----
2024-05-20 10:48 pm NE 7.0 8.0----30.01- 70.0 75.4----
2024-05-20 10:42 pm NE 8.0 9.9----30.01- 70.0 75.6----
2024-05-20 10:36 pm NE 8.0 11.1----30.00- 70.0 75.6----
2024-05-20 10:30 pm NE 8.0 9.9----30.00- 70.0 75.6----
2024-05-20 10:24 pm NE 8.0 9.9----30.00- 70.0 75.6----
2024-05-20 10:18 pm NE 8.0 9.9----30.00- 70.3 75.6----
2024-05-20 10:12 pm NE 8.0 11.1----30.00- 70.2 75.4----
2024-05-20 10:06 pm NE 8.9 9.9----30.00- 70.2 75.4----
2024-05-20 10:00 pm NE 7.0 9.9----30.00+0.03 70.2 75.4----
2024-05-20 09:54 pm NE 8.0 9.9----30.00- 70.2 75.6----
2024-05-20 09:48 pm NE 8.9 12.0----30.00- 70.2 75.4----
2024-05-20 09:42 pm NE 8.0 11.1----29.99- 70.0 75.2----
2024-05-20 09:36 pm NE 7.0 8.9----29.99- 70.2 75.2----
2024-05-20 09:30 pm NE 8.0 11.1----29.99- 70.2 75.2----
2024-05-20 09:24 pm NE 8.9 11.1----29.99- 70.2 75.2----
2024-05-20 09:18 pm NE 9.9 12.0----29.99- 70.3 75.4----
2024-05-20 09:12 pm NE 8.9 12.0----29.98- 70.5 75.6----
2024-05-20 09:06 pmENE 9.9 13.0----29.98- 70.5 75.4----
2024-05-20 09:00 pmENE 11.1 13.0------ 70.7 75.6----
2024-05-20 08:54 pmENE 11.1 14.0------ 70.7 75.2----
2024-05-20 08:48 pmENE 11.1 13.0----29.98- 70.7 75.0----
2024-05-20 08:42 pmENE 8.9 13.0----29.98- 70.7 75.0----
2024-05-20 08:36 pmENE 12.0 14.0----29.98- 70.5 75.2----
2024-05-20 08:30 pm E 9.9 14.0----29.98- 71.1 75.2----
2024-05-20 08:24 pmENE 12.0 15.0----29.98- 70.9 75.0----
2024-05-20 08:18 pmENE 12.0 15.0----29.98- 70.9 75.0----
2024-05-20 08:12 pmENE 13.0 15.0----29.98- 71.1 75.0----
2024-05-20 08:06 pm E 13.0 14.0----29.98- 71.2 75.0----
2024-05-20 08:00 pm E 12.0 14.0----29.98+0.02 71.1 75.0----
2024-05-20 07:54 pm E 13.0 14.0----29.97- 71.1 75.0----
2024-05-20 07:48 pm E 12.0 15.0----29.97- 71.2 75.0----
2024-05-20 07:42 pm E 11.1 15.0----29.97- 71.2 75.0----
2024-05-20 07:36 pm E 12.0 15.0----29.97- 71.8 75.0----
2024-05-20 07:30 pm E 14.0 15.9----29.97- 71.6 75.0----
2024-05-20 07:24 pm E 12.0 14.0----29.97- 71.4 75.0----
2024-05-20 07:18 pm E 13.0 14.0----29.97- 71.6 75.0----
2024-05-20 07:12 pm E 13.0 15.9----29.97- 71.8 75.0----
2024-05-20 07:06 pm E 12.0 14.0----29.97- 71.8 75.0----
2024-05-20 07:00 pm E 12.0 14.0----29.97+0.00- 75.0----
2024-05-20 06:54 pm E 11.1 14.0----29.96-- 75.0----
2024-05-20 06:48 pm E 13.0 15.0----29.96-- 75.2----
2024-05-20 06:42 pm E 11.1 14.0----29.96-- 75.2----
2024-05-20 06:36 pm E 9.9 13.0----29.96-- 75.0----
2024-05-20 06:30 pm E 11.1 13.0----29.96- 71.6 75.2----
2024-05-20 06:24 pm E 12.0 13.0----29.96- 71.8 75.6----
2024-05-20 06:18 pm E 9.9 12.0----29.96- 71.6 75.6----
2024-05-20 06:12 pm E 9.9 14.0----29.96- 71.4 75.7----
2024-05-20 06:06 pm E 13.0 14.0----29.96- 71.2 75.7----
2024-05-20 06:00 pm E 12.0 14.0----29.96-0.02 71.6 75.9----
2024-05-20 05:54 pm E 13.0 14.0----29.96- 71.6 75.9----
2024-05-20 05:48 pmESE 13.0 15.0----29.96- 71.6 75.9----
2024-05-20 05:42 pm E 12.0 15.0----29.96- 72.0 76.3----
2024-05-20 05:36 pm E 13.0 15.9----29.96- 72.7 76.3----
2024-05-20 05:30 pm E 13.0 15.9----29.96- 72.5 76.5----
2024-05-20 05:24 pm E 13.0 15.0----29.96- 72.7 76.5----
2024-05-20 05:18 pm E 14.0 15.0----29.96- 72.5 76.3----
2024-05-20 05:12 pm E 13.0 15.0----29.96- 72.1 76.3----
2024-05-20 05:06 pmESE 12.0 15.9----29.96- 72.5 76.3----
2024-05-20 05:00 pmESE 15.0 15.9----29.96-0.04 72.1 76.3----
2024-05-20 04:54 pm E 12.0 15.0----29.96- 73.6 76.3----
2024-05-20 04:48 pmNNE 8.0 9.9----29.96- 76.1 76.3----
2024-05-20 04:42 pmNNE 12.0 15.0----29.96- 75.9 76.3----
2024-05-20 04:36 pmNNE 9.9 11.1----29.96- 76.3 76.3----
2024-05-20 04:30 pm NE 8.9 12.0----29.96-------
2024-05-20 04:24 pmNNE 12.0 15.9----29.96-------
2024-05-20 04:18 pmNNE 8.9 14.0----29.96- 76.1 76.5----
2024-05-20 04:12 pmNNE 11.1 13.0----29.96- 76.1 76.5----
2024-05-20 04:06 pmNNE 11.1 15.0----29.96- 76.1 76.3----
2024-05-20 04:00 pmNNE 11.1 12.0----29.96-0.03 75.9 76.1----
2024-05-20 03:54 pmNNE 9.9 15.0----29.97- 75.7 76.1----
2024-05-20 03:48 pmNNE 13.0 14.0----29.97- 75.7 76.1----
2024-05-20 03:42 pmNNE 9.9 14.0----29.97- 75.6 76.1----
2024-05-20 03:36 pm N 9.9 14.0----29.97- 75.4 75.9----
2024-05-20 03:30 pm NE 12.0 15.0----29.97- 74.5 76.1----
2024-05-20 03:24 pmNNE 8.9 15.0----29.97- 75.4 75.7----
2024-05-20 03:18 pmNNE 9.9 15.0----29.98- 74.8 76.1----
2024-05-20 03:12 pmNNE 12.0 14.0----29.98- 75.0 76.8----
2024-05-20 03:06 pm NE 12.0 15.0----29.98- 74.5 77.0----
2024-05-20 03:00 pmNNE 12.0 17.1----29.98-0.02 74.5 77.0----
2024-05-20 02:54 pmNNE 14.0 15.0----29.98- 74.3 76.6----
2024-05-20 02:48 pmNNE 12.0 15.9----29.98- 74.3 76.5----
2024-05-20 02:42 pmNNE 15.0 19.0----29.99- 74.1 76.1----
2024-05-20 02:36 pmNNE 12.0 17.1----29.99- 74.3 76.1----
2024-05-20 02:30 pmNNE 13.0 17.1----29.99- 74.1 76.6----
2024-05-20 02:24 pm N 12.0 19.0----29.99- 73.9 76.6----
2024-05-20 02:18 pmNNE 13.0 18.1----29.99- 73.8 76.6----
2024-05-20 02:12 pmNNE 15.0 18.1----29.99- 73.6 76.5----
2024-05-20 02:06 pm NE 12.0 14.0----29.99- 73.2 76.1----
2024-05-20 02:00 pmNNE 13.0 15.0----29.99+0.00 73.4 76.1----
2024-05-20 01:54 pm N 13.0 17.1----29.99- 73.2 76.5----
2024-05-20 01:48 pm N 11.1 15.0----29.99- 72.9 76.8----
2024-05-20 01:42 pmNNE 13.0 15.9----29.99- 72.7 76.3----
2024-05-20 01:36 pmNNE 11.1 15.9----29.99- 73.0 76.3----
2024-05-20 01:30 pmNNE 15.0 15.9----29.99- 72.3 76.1----
2024-05-20 01:24 pm N 12.0 15.9----29.99- 72.3 75.9----
2024-05-20 01:18 pmNNE 11.1 17.1----29.99- 72.3 75.9----
2024-05-20 01:12 pmNNE 13.0 22.9----29.99- 72.0 75.7----
2024-05-20 01:06 pm NE 13.0 15.9----29.99- 71.2 75.7----
2024-05-20 01:00 pm N 12.0 15.9----30.00+0.00 71.2 75.7----
2024-05-20 12:54 pmNNE 14.0 19.0----30.00- 71.6 75.7----
2024-05-20 12:48 pmNNE 14.0 17.1----30.00- 71.1 75.7----
2024-05-20 12:42 pmNNE 9.9 15.0----30.00- 70.7 75.6----
2024-05-20 12:36 pmNNE 13.0 15.0----30.00- 70.9 75.6----
2024-05-20 12:30 pmNNE 14.0 17.1----30.00- 70.9 75.6----
2024-05-20 12:24 pmNNE 15.0 18.1----30.00- 70.5 75.6----
2024-05-20 12:18 pm N 11.1 15.0----30.00- 69.8 75.4----
2024-05-20 12:12 pm N 9.9 15.0----30.00- 70.2 75.4----
2024-05-20 12:06 pmNNE 13.0 15.9----30.00- 69.8 75.4----
2024-05-20 12:00 pmNNE 11.1 18.1----30.00+0.01 69.6 75.4----
2024-05-20 11:54 am NE 14.0 18.1----30.00- 68.9 75.4----
2024-05-20 11:48 amNNE 12.0 17.1----30.00- 69.3 75.4----
2024-05-20 11:42 amNNE 15.0 20.0----30.00- 68.5 75.4----
2024-05-20 11:36 amNNE 15.9 19.0----30.00- 68.9 75.4----
2024-05-20 11:30 am N 15.0 19.0----30.00- 68.4 75.4----
2024-05-20 11:24 am N 17.1 22.9----30.00- 68.2 75.4----
2024-05-20 11:18 amNNE 17.1 21.0----30.00- 69.1 75.4----
2024-05-20 11:12 amNNE 18.1 20.0----30.00- 68.4 75.4----
2024-05-20 11:06 amNNE 19.0 21.0----30.00- 67.8 75.4----
2024-05-20 11:00 amNNE 17.1 22.0----30.00+0.02 68.4 75.4----
2024-05-20 10:54 amNNE 19.0 22.0----29.99- 68.5 75.4----
2024-05-20 10:48 amNNE 15.9 19.0----29.99- 68.7 75.4----
2024-05-20 10:42 amNNE 18.1 21.0----30.00- 68.9 75.4----
2024-05-20 10:36 amNNE 18.1 22.0----30.00- 68.9 75.4----
2024-05-20 10:30 amNNE 17.1 22.0----30.00- 68.9 75.4----
2024-05-20 10:24 amNNE 19.0 21.0----30.00- 68.9 75.4----
2024-05-20 10:18 amNNE 15.0 17.1----30.00- 68.7 75.4----
2024-05-20 10:12 amNNE 15.0 21.0----29.99- 68.5 75.2----
2024-05-20 10:06 amNNE 15.9 20.0----29.99- 68.9 75.4----
2024-05-20 10:00 amNNE 18.1 21.0----29.99+0.03 68.7 75.4----
2024-05-20 09:54 amNNE 19.0 21.0----29.99- 68.5 75.4----
2024-05-20 09:48 amNNE 19.0 22.9----29.98- 68.5 75.4----
2024-05-20 09:42 amNNE 15.9 22.0----29.99- 68.9 75.2----
2024-05-20 09:36 amNNE 19.0 21.0----29.99- 69.1 75.2----
2024-05-20 09:30 amNNE 18.1 22.0----29.99- 68.5 75.4----
2024-05-20 09:24 amNNE 19.0 21.0----29.99- 68.5 75.4----
2024-05-20 09:18 amNNE 15.9 19.0----29.98- 68.4 75.6----
2024-05-20 09:12 amNNE 15.9 19.0----29.98- 67.6 75.6----
2024-05-20 09:06 amNNE 18.1 20.0----29.98- 68.0 75.6----
2024-05-20 09:00 am N 14.0 17.1----29.98+0.04 67.6 75.6----
2024-05-20 08:54 amNNE 15.9 18.1----29.98- 67.8 75.4----
2024-05-20 08:48 amNNE 13.0 19.0----29.98- 67.6 75.4----
2024-05-20 08:42 amNNE 14.0 17.1----29.98- 67.6 75.6----
2024-05-20 08:36 amNNE 14.0 20.0----29.98- 67.3 75.6----
2024-05-20 08:30 am N 14.0 18.1----29.98- 67.5 75.6----
2024-05-20 08:24 amNNE 14.0 17.1----29.98- 68.0 75.6----
2024-05-20 08:18 amNNE 15.0 18.1----29.98- 68.0 75.6----
2024-05-20 08:12 am N 12.0 15.9----29.98- 67.6 75.6----
2024-05-20 08:06 amNNE 12.0 18.1----29.98- 67.8 75.6----
2024-05-20 08:00 amNNE 15.9 18.1----29.98+0.04 67.8 75.6----
2024-05-20 07:54 amNNE 14.0 17.1----29.97- 67.6 75.7----
2024-05-20 07:48 amNNE 15.0 18.1----29.97- 67.6 75.7----
2024-05-20 07:42 amNNE 15.0 18.1----29.97- 67.6 75.7----
2024-05-20 07:36 amNNE 13.0 15.9----29.97- 67.1 75.7----
2024-05-20 07:30 amNNE 15.0 17.1----29.97- 67.6 75.7----
2024-05-20 07:24 amNNE 15.0 18.1----29.97- 67.6 75.7----
2024-05-20 07:18 amNNE 14.0 19.0----29.97- 67.3 75.7----
2024-05-20 07:12 amNNE 15.0 18.1----29.97- 67.3 75.7----
2024-05-20 07:06 amNNE 15.0 17.1----29.96- 67.5 75.7----
2024-05-20 07:00 amNNE 14.0 18.1----29.96+0.03 67.3 75.7----
2024-05-20 06:54 amNNE 15.0 20.0----29.96- 67.1 75.7----
2024-05-20 06:48 amNNE 15.0 19.0----29.96- 67.3 75.7----
2024-05-20 06:42 amNNE 17.1 19.0----29.96- 67.1 75.7----
2024-05-20 06:36 amNNE 15.9 19.0----29.96- 67.5 75.7----
2024-05-20 06:30 amNNE 18.1 20.0----29.95- 66.9 75.9----
2024-05-20 06:24 amNNE 15.9 19.0----29.95- 67.3 75.9----
2024-05-20 06:18 amNNE 15.9 18.1----29.95- 66.9 75.7----
2024-05-20 06:12 amNNE 15.9 19.0----29.95- 67.1 75.7----
2024-05-20 06:06 amNNE 14.0 19.0----29.95- 67.1 75.9----
2024-05-20 06:00 amNNE 15.0 19.0----29.94+0.01 66.9 75.7----
2024-05-20 05:54 amNNE 17.1 21.0----29.95- 66.6 75.6----
2024-05-20 05:48 amNNE 15.0 17.1----29.95- 66.9 75.6----
2024-05-20 05:42 amNNE 15.0 18.1----29.94- 67.3 75.4----
2024-05-20 05:36 amNNE 14.0 17.1----29.94- 66.9 75.4----
2024-05-20 05:30 amNNE 15.0 18.1----29.95- 66.7 75.4----
2024-05-20 05:24 amNNE 15.0 19.0----29.94- 66.7 75.4----
2024-05-20 05:18 amNNE 14.0 18.1----29.94- 66.9 75.4----
2024-05-20 05:12 amNNE 15.0 17.1----29.94- 67.3 75.6----
2024-05-20 05:06 amNNE 13.0 17.1----29.94- 66.9 75.6----
2024-05-20 05:00 amNNE 14.0 17.1----29.94-0.01 66.9 75.7----
2024-05-20 04:54 amNNE 12.0 15.9----29.94- 66.7 75.7----
2024-05-20 04:48 amNNE 14.0 17.1----29.93- 66.9 75.7----
2024-05-20 04:42 amNNE 14.0 19.0----29.93- 67.1 75.7----
2024-05-20 04:36 amNNE 14.0 15.9----29.93- 67.3 75.9----
2024-05-20 04:30 amNNE 13.0 15.0----29.94- 67.1 75.9----
2024-05-20 04:24 amNNE 14.0 17.1----29.93- 66.9 75.9----
2024-05-20 04:18 amNNE 14.0 17.1----29.93- 67.3 75.9----
2024-05-20 04:12 amNNE 14.0 17.1----29.93- 67.3 75.9----
2024-05-20 04:06 amNNE 14.0 17.1----29.93- 67.3 75.9----
2024-05-20 04:00 amNNE 15.0 18.1----29.93-0.01 67.3 75.9----
2024-05-20 03:54 amNNE 15.0 18.1----29.93- 67.5 75.7----
2024-05-20 03:48 amNNE 15.9 19.0----29.93- 67.6 75.9----
2024-05-20 03:42 amNNE 15.9 19.0----29.93- 67.3 75.9----
2024-05-20 03:36 amNNE 17.1 19.0----29.94- 67.5 75.9----
2024-05-20 03:30 amNNE 15.9 17.1----29.94- 67.6 75.9----
2024-05-20 03:24 amNNE 15.0 19.0----29.93- 67.6 75.9----
2024-05-20 03:18 amNNE 14.0 17.1----29.93- 67.8 76.1----
2024-05-20 03:12 amNNE 14.0 19.0----29.93- 68.0 75.9----
2024-05-20 03:06 amNNE 15.9 19.0----29.93- 67.6 75.9----
2024-05-20 03:00 amNNE 14.0 17.1----29.93-0.02 67.6 75.9----
2024-05-20 02:54 am N 12.0 15.0----29.94- 68.2 75.7----
2024-05-20 02:48 amNNE 14.0 18.1----29.94- 68.4 75.6----
2024-05-20 02:42 amNNE 15.9 18.1----29.94- 67.6 75.6----
2024-05-20 02:36 amNNE 13.0 17.1----29.94- 67.8 75.6----
2024-05-20 02:30 amNNE 15.0 17.1----29.94- 67.6 75.6----
2024-05-20 02:24 amNNE 14.0 15.9----29.94- 68.2 75.7----
2024-05-20 02:18 amNNE 15.0 17.1----29.94- 67.8 75.7----
2024-05-20 02:12 amNNE 15.0 18.1----29.95- 68.2 75.7----
2024-05-20 02:06 amNNE 15.0 17.1----29.95- 68.2 75.7----
2024-05-20 02:00 amNNE 13.0 17.1----29.95+0.00 68.5 75.7----
2024-05-20 01:54 am N 13.0 15.0----29.95- 67.8 75.7----